Location: Waning Moon II Observatory
(30.3730°N, 89.7620°W)
Time: 04:54:47
(UTC-05:00)

Cosmos 1825 Rocket - Visible Passes

Search period start: 26 April 2017 00:00
Search period end: 06 May 2017 00:00
Orbit: 604 x 631 km, 82.5° (Epoch: 24 April)

Date Brightness Start Highest point End Pass type
(mag) Time Alt. Az. Time Alt. Az. Time Alt. Az.
26 Apr 6.3 02:58:06 16° NE 02:58:06 16° NE 02:59:08 10° NNE visible
26 Apr 6.0 04:35:15 11° NW 04:35:15 11° NW 04:35:30 10° NW visible
27 Apr 6.0 03:15:07 19° NNE 03:15:07 19° NNE 03:16:24 10° NNE visible
28 Apr 5.9 03:32:05 18° N 03:32:05 18° N 03:33:15 10° N visible
29 Apr 6.0 03:49:02 13° NNW 03:49:02 13° NNW 03:49:42 10° NNW visible
30 Apr 6.7 02:28:51 11° NNE 02:28:51 11° NNE 02:29:06 10° NNE visible
01 May 6.5 02:45:47 14° NNE 02:45:47 14° NNE 02:46:21 10° N visible
02 May 6.3 03:02:41 13° N 03:02:41 13° N 03:03:12 10° N visible
03 May 6.4 03:19:35 10° NNW 03:19:35 10° NNW 03:19:38 10° NNW visible
05 May 6.7 02:16:12 11° N 02:16:12 11° N 02:16:17 10° N visible
